When you browse on this site, cookies collect data to enhance your experience and personalize the content and advertising you see.
Visit our Privacy Policy to learn more. By continuing to use the site, you agree to this use of cookies and data.
  • In United Kingdom
  • List of Countries
  • For 7 days
  • Water Temperature
  • Weather Map
  • Weather Widgets
  • user-avatar
    Login

    Hourly Weather Filiasi

    Today, 16 September, Monday

    Time Temperature Precipitation Wind Pressure Humidity
    00:00 +18°C° 0 mm 1 mps 757 mmHg 49%
    01:00 +18°C° 0 mm 1 mps 756 mmHg 51%
    02:00 +16°C° 0 mm 1 mps 756 mmHg 53%
    03:00 +16°C° 0 mm 1 mps 756 mmHg 55%
    04:00 +15°C° 0 mm 1 mps 755 mmHg 57%
    05:00 +15°C° 0 mm 1 mps 755 mmHg 60%
    06:00 +18°C° 0 mm 1 mps 755 mmHg 55%
    07:00 +19°C° 0 mm 1 mps 755 mmHg 50%
    08:00 +21°C° 0 mm 1 mps 755 mmHg 44%
    09:00 +23°C° 0 mm 1 mps 754 mmHg 39%
    10:00 +26°C° 0 mm 2 mps 754 mmHg 33%
    11:00 +29°C° 0 mm 3 mps 754 mmHg 27%
    12:00 +30°C° 0 mm 3 mps 753 mmHg 23%
    13:00 +32°C° 0 mm 2 mps 753 mmHg 19%
    14:00 +34°C° 0 mm 2 mps 752 mmHg 16%
    15:00 +34°C° 0 mm 2 mps 752 mmHg 16%
    16:00 +34°C° 0 mm 2 mps 752 mmHg 15%
    17:00 +34°C° 0 mm 2 mps 751 mmHg 15%
    18:00 +30°C° 0 mm 2 mps 751 mmHg 21%
    19:00 +27°C° 0 mm 2 mps 751 mmHg 26%
    20:00 +24°C° 0 mm 2 mps 752 mmHg 32%
    21:00 +23°C° 0 mm 2 mps 752 mmHg 36%
    22:00 +21°C° 0 mm 2 mps 752 mmHg 39%
    23:00 +20°C° 0 mm 2 mps 751 mmHg 43%

    Tomorrow, 17 September, Tuesday

    Time Temperature Precipitation Wind Pressure Humidity
    00:00 +19°C° 0 mm 2 mps 751 mmHg 44%
    01:00 +18°C° 0 mm 2 mps 751 mmHg 46%
    02:00 +18°C° 0 mm 2 mps 751 mmHg 48%
    03:00 +18°C° 0 mm 1 mps 751 mmHg 49%
    04:00 +18°C° 0 mm 1 mps 751 mmHg 50%
    05:00 +18°C° 0 mm 1 mps 751 mmHg 52%
    06:00 +19°C° 0 mm 1 mps 751 mmHg 47%
    07:00 +21°C° 0 mm 1 mps 751 mmHg 42%
    08:00 +23°C° 0 mm 1 mps 751 mmHg 38%
    09:00 +26°C° 0 mm 2 mps 751 mmHg 34%
    10:00 +29°C° 0 mm 2 mps 751 mmHg 30%
    11:00 +31°C° 0 mm 2 mps 751 mmHg 26%
    12:00 +34°C° 0 mm 3 mps 751 mmHg 24%
    13:00 +35°C° 0 mm 4 mps 750 mmHg 22%
    14:00 +36°C° 0 mm 4 mps 749 mmHg 19%
    15:00 +35°C° 0 mm 5 mps 749 mmHg 19%
    16:00 +35°C° 0 mm 5 mps 749 mmHg 19%
    17:00 +34°C° 0 mm 5 mps 748 mmHg 19%
    18:00 +32°C° 0 mm 4 mps 749 mmHg 26%
    19:00 +28°C° 0 mm 4 mps 749 mmHg 33%
    20:00 +25°C° 0 mm 3 mps 749 mmHg 39%
    21:00 +24°C° 0 mm 3 mps 749 mmHg 43%
    22:00 +21°C° 0 mm 2 mps 749 mmHg 46%
    23:00 +20°C° 0 mm 2 mps 749 mmHg 50%

    Day after tomorrow, 18 September, Wednesday

    Time Temperature Precipitation Wind Pressure Humidity
    00:00 +20°C° 0 mm 2 mps 749 mmHg 52%
    01:00 +19°C° 0 mm 2 mps 749 mmHg 54%
    02:00 +19°C° 0 mm 2 mps 749 mmHg 55%
    03:00 +19°C° 0 mm 2 mps 749 mmHg 56%
    04:00 +19°C° 0 mm 2 mps 750 mmHg 57%
    05:00 +19°C° 0 mm 3 mps 750 mmHg 58%
    06:00 +20°C° 0 mm 4 mps 750 mmHg 54%
    07:00 +21°C° 0 mm 5 mps 751 mmHg 50%
    08:00 +22°C° 0 mm 6 mps 752 mmHg 45%
    09:00 +21°C° 0.1 mm 5 mps 752 mmHg 47%
    10:00 +20°C° 0.1 mm 5 mps 753 mmHg 48%
    11:00 +19°C° 0.1 mm 4 mps 753 mmHg 50%
    12:00 +20°C° 0 mm 5 mps 754 mmHg 45%
    13:00 +21°C° 0 mm 5 mps 754 mmHg 39%
    14:00 +21°C° 0 mm 6 mps 754 mmHg 34%
    15:00 +22°C° 0 mm 6 mps 754 mmHg 31%
    16:00 +22°C° 0 mm 5 mps 754 mmHg 29%
    17:00 +22°C° 0 mm 5 mps 754 mmHg 26%
    18:00 +20°C° 0 mm 5 mps 755 mmHg 30%
    19:00 +18°C° 0 mm 4 mps 755 mmHg 34%
    20:00 +15°C° 0 mm 4 mps 755 mmHg 39%
    21:00 +14°C° 0 mm 4 mps 756 mmHg 40%
    22:00 +13°C° 0 mm 3 mps 756 mmHg 41%
    23:00 +12°C° 0 mm 3 mps 756 mmHg 43%

    19 September, Thursday

    Time Temperature Precipitation Wind Pressure Humidity
    00:00 +12°C° 0 mm 3 mps 756 mmHg 44%
    01:00 +11°C° 0 mm 3 mps 756 mmHg 46%
    02:00 +10°C° 0 mm 3 mps 757 mmHg 47%
    03:00 +10°C° 0 mm 3 mps 757 mmHg 47%
    04:00 +10°C° 0 mm 3 mps 757 mmHg 48%
    05:00 +9°C° 0 mm 3 mps 756 mmHg 48%
    06:00 +10°C° 0 mm 3 mps 756 mmHg 46%
    07:00 +12°C° 0 mm 3 mps 756 mmHg 43%
    08:00 +13°C° 0 mm 3 mps 756 mmHg 41%
    09:00 +16°C° 0 mm 3 mps 757 mmHg 37%
    10:00 +18°C° 0 mm 2 mps 757 mmHg 33%
    11:00 +21°C° 0 mm 1 mps 757 mmHg 30%
    12:00 +22°C° 0 mm 1 mps 756 mmHg 26%
    13:00 +23°C° 0 mm 2 mps 756 mmHg 22%
    14:00 +25°C° 0 mm 3 mps 755 mmHg 18%
    15:00 +25°C° 0 mm 3 mps 755 mmHg 17%
    16:00 +25°C° 0 mm 3 mps 755 mmHg 15%
    17:00 +25°C° 0 mm 4 mps 755 mmHg 14%
    18:00 +21°C° 0 mm 4 mps 755 mmHg 18%
    19:00 +19°C° 0 mm 4 mps 755 mmHg 23%
    20:00 +15°C° 0 mm 4 mps 755 mmHg 28%
    21:00 +14°C° 0 mm 4 mps 756 mmHg 30%
    22:00 +13°C° 0 mm 3 mps 756 mmHg 33%
    23:00 +12°C° 0 mm 3 mps 756 mmHg 35%

    20 September, Friday

    Time Temperature Precipitation Wind Pressure Humidity
    00:00 +11°C° 0 mm 3 mps 756 mmHg 38%
    01:00 +10°C° 0 mm 2 mps 757 mmHg 41%
    02:00 +9°C° 0 mm 2 mps 757 mmHg 44%
    03:00 +8°C° 0 mm 2 mps 757 mmHg 47%
    04:00 +8°C° 0 mm 2 mps 757 mmHg 49%
    05:00 +8°C° 0 mm 1 mps 757 mmHg 52%
    06:00 +9°C° 0 mm 1 mps 758 mmHg 47%
    07:00 +11°C° 0 mm 1 mps 758 mmHg 43%
    08:00 +13°C° 0 mm 1 mps 758 mmHg 38%
    09:00 +15°C° 0 mm 2 mps 758 mmHg 33%
    10:00 +17°C° 0 mm 2 mps 759 mmHg 29%
    11:00 +19°C° 0 mm 2 mps 759 mmHg 24%
    12:00 +20°C° 0 mm 3 mps 758 mmHg 21%
    13:00 +21°C° 0 mm 4 mps 758 mmHg 18%
    14:00 +22°C° 0 mm 4 mps 757 mmHg 15%
    15:00 +22°C° 0 mm 5 mps 757 mmHg 15%
    16:00 +21°C° 0 mm 5 mps 757 mmHg 16%
    17:00 +21°C° 0 mm 5 mps 757 mmHg 16%
    18:00 +17°C° 0 mm 5 mps 758 mmHg 19%
    19:00 +15°C° 0 mm 4 mps 759 mmHg 23%
    20:00 +13°C° 0 mm 4 mps 760 mmHg 26%
    21:00 +11°C° 0 mm 3 mps 760 mmHg 29%
    22:00 +10°C° 0 mm 3 mps 761 mmHg 33%
    23:00 +9°C° 0 mm 2 mps 761 mmHg 36%

    21 September, Saturday

    Time Temperature Precipitation Wind Pressure Humidity
    00:00 +8°C° 0 mm 2 mps 762 mmHg 39%
    01:00 +8°C° 0 mm 1 mps 762 mmHg 42%
    02:00 +6°C° 0 mm 0 mps 762 mmHg 45%
    03:00 +7°C° 0 mm 1 mps 762 mmHg 46%
    04:00 +7°C° 0 mm 1 mps 762 mmHg 46%
    05:00 +7°C° 0 mm 1 mps 763 mmHg 47%
    06:00 +8°C° 0 mm 1 mps 763 mmHg 44%
    07:00 +10°C° 0 mm 1 mps 763 mmHg 41%
    08:00 +11°C° 0 mm 1 mps 763 mmHg 38%
    09:00 +13°C° 0 mm 2 mps 763 mmHg 35%
    10:00 +15°C° 0 mm 2 mps 763 mmHg 31%
    11:00 +17°C° 0 mm 3 mps 763 mmHg 28%
    12:00 +18°C° 0 mm 2 mps 762 mmHg 25%
    13:00 +19°C° 0 mm 2 mps 762 mmHg 22%
    14:00 +20°C° 0 mm 2 mps 761 mmHg 19%
    15:00 +20°C° 0 mm 2 mps 761 mmHg 19%
    16:00 +20°C° 0 mm 2 mps 761 mmHg 19%
    17:00 +20°C° 0 mm 2 mps 761 mmHg 18%
    18:00 +18°C° 0 mm 2 mps 761 mmHg 22%
    19:00 +16°C° 0 mm 2 mps 762 mmHg 26%
    20:00 +13°C° 0 mm 2 mps 762 mmHg 30%
    21:00 +12°C° 0 mm 2 mps 762 mmHg 32%
    22:00 +12°C° 0 mm 2 mps 763 mmHg 34%
    23:00 +11°C° 0 mm 1 mps 763 mmHg 36%
    Show more